Flag for Switzerland Weather past 2 weeks in Thônex, Geneva, Switzerland

Now
70 °F

Sunny.


Feels Like: 70 °F
Forecast: 62 / 93 °F
Wind: 3 mph from North

Location: Geneva Cointrin Airport

Current Time: Jul 1, 2015 at 7:51:39 AM

Latest Report: Jul 1, 2015 at 7:20 AM


Visibility: 10 mi

Pressure: 30.12 "Hg

Humidity: 64%

Dew point: 57 °F

Location of ThônexLocation

Historic Weather in Thônex — Graph

°F

Thônex temperature yesterday

Maximum temperature yesterday: 90 °F (at 5:50 PM)
Minimum temperature yesterday: 59 °F (at 4:50 AM)
Average temperature yesterday: 75 °F

Past Weeks' High & Low Weather Summary

 TemperatureHumidityPressure
High90 °F (Jun 30, 5:50 PM)100% (Jun 18, 11:20 PM)30.21 "Hg (Jun 18, 11:20 PM)
Low48 °F (Jun 24, 3:50 AM)22% (Jun 28, 6:50 PM)29.83 "Hg (Jun 22, 8:50 PM)
Average68 °F58%30.11 "Hg
* Reported Jun 16 6:20 AM — Jul 1 6:20 AM, Thônex, Weather by CustomWeather, © 2015

Note: Actual official high and low records may vary slightly from our data, if they occured in-between our weather recording intervals... More about our weather records

Advertising

Thônex weather history for previous 24 hours

 ConditionsComfort  
Time TempWeatherWind HumidityBarometerVisibility
6:20 AM
Wed, Jul 1
63 °FClear.No wind77%30.12 "Hg10 mi
5:50 AM63 °FClear.1 mph77%30.12 "Hg10 mi
5:20 AM63 °FClear.No wind77%30.12 "Hg10 mi
4:50 AM63 °FClear.2 mph77%30.12 "Hg10 mi
4:20 AM64 °FClear.1 mph73%30.09 "Hg10 mi
3:50 AM64 °FClear.2 mph73%30.09 "Hg10 mi
2:50 AM64 °FClear.2 mph78%30.09 "Hg10 mi
2:20 AM64 °FClear.1 mph78%30.09 "Hg10 mi
1:50 AM64 °FClear.No wind73%30.09 "Hg10 mi
1:20 AM66 °FClear.1 mph73%30.09 "Hg10 mi
12:50 AM68 °FClear.1 mph69%30.09 "Hg10 mi
12:20 AM68 °FClear.1 mph69%30.09 "Hg10 mi
11:50 PM
Tue, Jun 30
70 °FClear.1 mph64%30.09 "Hg10 mi
11:20 PM70 °FClear.1 mph64%30.09 "Hg10 mi
10:50 PM73 °FClear.1 mph57%30.09 "Hg10 mi
10:20 PM75 °FSunny.2 mph50%30.07 "Hg10 mi
9:50 PM77 °FSunny.3 mph47%30.07 "Hg10 mi
9:20 PM79 °FSunny.No wind42%30.07 "Hg10 mi
8:50 PM86 °FSunny.2 mph31%30.07 "Hg10 mi
8:20 PM86 °FSunny.3 mph29%30.04 "Hg10 mi
7:50 PM88 °FPassing clouds.5 mph25%30.04 "HgN/A
6:50 PM90 °FPassing clouds.5 mph26%30.04 "HgN/A
6:20 PM90 °FPassing clouds.6 mph24%30.04 "HgN/A
5:50 PM90 °FPassing clouds.7 mph26%30.07 "HgN/A
4:50 PM88 °FPassing clouds.8 mph29%30.07 "HgN/A
4:20 PM88 °FPassing clouds.8 mph29%30.07 "HgN/A
3:50 PM88 °FPassing clouds.7 mph29%30.09 "HgN/A
2:50 PM86 °FPassing clouds.7 mph31%30.09 "HgN/A
2:20 PM86 °FPassing clouds.6 mph33%30.09 "HgN/A
1:50 PM84 °FPassing clouds.7 mph35%30.12 "HgN/A
1:20 PM84 °FPassing clouds.8 mph37%30.12 "HgN/A
12:50 PM82 °FPassing clouds.9 mph37%30.12 "HgN/A
12:20 PM81 °FPassing clouds.10 mph42%30.12 "HgN/A
11:50 AM79 °FPassing clouds.9 mph45%30.12 "HgN/A
11:20 AM79 °FPassing clouds.9 mph45%30.15 "HgN/A
10:50 AM77 °FPassing clouds.8 mph47%30.15 "HgN/A
10:20 AM77 °FSunny.7 mph47%30.15 "Hg10 mi
9:50 AM77 °FSunny.2 mph51%30.15 "Hg10 mi
9:20 AM75 °FPassing clouds.3 mph54%30.15 "HgN/A
8:50 AM73 °FSunny.5 mph57%30.15 "Hg10 mi
8:20 AM72 °FSunny.2 mph61%30.15 "Hg10 mi
7:50 AM72 °FSunny.1 mph65%30.15 "Hg10 mi
7:20 AM66 °FSunny.1 mph73%30.15 "Hg10 mi
Weather by CustomWeather, © 2015

See weather overviewHow to use our weather pages